�N����,����,�~����,�C��,���x,�C��,����,���ϕ���,�ő�u�ԕ���,�ő厞����,���˗�,�I�_���x,�n�����x,�ő啗���N��,DTYPE
"21/08/04","00:10",0.0,24.0,92.9,1007.8,5.9,0.2,1.1,313.3,0.00,22.8,27.0,"00:09:28",1
"21/08/04","00:20",0.0,24.0,93.1,1008.1,321.1,0.6,1.2,318.8,0.00,22.9,26.8,"00:10:56",1
"21/08/04","00:30",0.0,23.9,93.1,1007.8,328.2,1.1,1.4,339.7,0.00,22.8,26.8,"00:23:20",1
"21/08/04","00:40",0.0,24.0,93.3,1008.3,313.8,0.8,1.9,321.2,0.00,22.9,26.7,"00:36:16",1
"21/08/04","00:50",0.0,24.0,93.3,1008.1,303.7,0.6,1.1,252.7,0.00,22.9,26.8,"00:41:12",1
"21/08/04","01:00",0.0,23.9,93.4,1008.1,317.2,0.7,1.2,321.2,0.00,22.8,26.7,"00:58:24",1
"21/08/04","01:10",0.0,24.0,93.5,1007.6,325.8,0.8,1.2,331.5,0.00,22.9,26.7,"01:04:40",1
"21/08/04","01:20",0.0,24.0,93.5,1007.6,325.1,0.8,1.2,325.4,0.00,22.9,26.9,"01:10:32",1
"21/08/04","01:30",0.0,23.9,93.6,1007.6,334.6,0.7,1.2,355.7,0.00,22.8,26.7,"01:23:52",1
"21/08/04","01:40",0.0,23.9,93.6,1007.6,309.0,0.5,1.0,310.4,0.00,22.8,26.6,"01:31:28",1
"21/08/04","01:50",0.0,23.9,93.8,1007.8,320.3,0.8,1.3,312.4,0.00,22.9,26.6,"01:46:16",1
"21/08/04","02:00",0.0,23.8,93.8,1007.6,318.3,1.0,1.3,339.8,0.00,22.8,26.5,"01:52:24",1
"21/08/04","02:10",0.0,23.8,93.9,1007.6,307.2,0.5,0.9,307.8,0.00,22.8,26.6,"02:05:28",1
"21/08/04","02:20",0.0,23.8,93.9,1007.8,322.5,1.1,1.4,316.7,0.00,22.8,26.6,"02:15:04",1
"21/08/04","02:30",0.0,23.9,93.9,1008.1,334.0,1.0,1.7,342.1,0.00,22.9,26.5,"02:21:36",1
"21/08/04","02:40",0.0,23.8,94.0,1008.1,328.1,0.7,1.2,324.0,0.00,22.8,26.6,"02:38:56",1
"21/08/04","02:50",0.0,23.8,94.1,1007.8,327.9,0.6,1.2,300.0,0.00,22.8,26.4,"02:48:40",1
"21/08/04","03:00",0.0,23.8,94.1,1008.1,325.9,0.8,1.4,313.8,0.00,22.8,26.3,"02:53:36",1
"21/08/04","03:10",0.0,23.8,94.2,1007.8,306.1,0.8,1.3,273.7,0.00,22.9,26.2,"03:08:00",1
"21/08/04","03:20",0.0,23.8,94.2,1008.1,328.3,0.7,1.2,318.4,0.00,22.9,26.3,"03:13:36",1
"21/08/04","03:30",0.0,23.7,94.2,1007.8,329.2,0.8,1.0,302.6,0.00,22.8,26.2,"03:20:16",1
"21/08/04","03:40",0.0,23.5,94.3,1007.8,303.6,0.6,1.0,319.5,0.00,22.6,26.2,"03:35:12",1
"21/08/04","03:50",0.0,23.6,94.5,1007.8,308.8,0.7,1.2,313.1,0.00,22.7,26.2,"03:46:24",1
"21/08/04","04:00",0.0,23.6,94.4,1007.8,330.4,0.8,1.2,326.8,0.00,22.7,26.3,"03:54:40",1
"21/08/04","04:10",0.0,23.5,94.5,1007.6,332.6,1.0,1.4,327.5,0.00,22.6,26.2,"04:00:24",1
"21/08/04","04:20",0.0,23.4,94.5,1007.8,313.4,0.6,1.1,322.5,0.00,22.5,26.4,"04:11:04",1
"21/08/04","04:30",0.0,23.5,94.6,1007.8,314.3,0.6,1.2,317.8,0.00,22.6,26.4,"04:25:20",1
"21/08/04","04:40",0.0,23.5,94.6,1007.8,335.6,1.0,1.3,335.8,0.00,22.6,26.3,"04:33:04",1
"21/08/04","04:50",0.0,23.5,94.6,1007.8,303.1,0.7,1.1,336.5,0.00,22.6,26.2,"04:42:56",1
"21/08/04","05:00",0.0,23.5,94.7,1007.8,300.1,0.7,0.9,311.5,0.00,22.6,26.1,"04:56:08",1
"21/08/04","05:10",0.0,23.6,94.7,1007.8,319.2,0.7,1.1,340.5,0.00,22.7,26.1,"05:02:00",1
"21/08/04","05:20",0.0,23.6,94.7,1007.8,328.7,0.8,1.3,339.9,0.00,22.7,26.1,"05:12:00",1
"21/08/04","05:30",0.0,23.5,94.8,1007.8,318.1,0.6,1.0,330.2,0.00,22.7,26.1,"05:20:32",1
"21/08/04","05:40",0.0,23.5,94.8,1007.8,319.8,0.6,1.0,326.5,0.00,22.7,26.1,"05:32:40",1
"21/08/04","05:50",0.0,23.5,94.9,1007.8,327.1,1.0,1.3,332.7,0.00,22.7,26.1,"05:41:20",1
"21/08/04","06:00",0.0,23.6,94.9,1008.1,324.5,0.7,1.0,294.4,0.00,22.8,26.0,"05:50:40",1
"21/08/04","06:10",0.0,23.7,94.9,1007.8,331.6,0.6,0.9,327.7,0.00,22.9,25.9,"06:03:12",1
"21/08/04","06:20",0.0,24.0,94.9,1007.6,335.8,0.8,1.1,335.8,0.00,23.2,25.9,"06:14:00",1
"21/08/04","06:30",0.0,24.5,94.9,1007.4,320.6,0.5,0.9,351.0,0.01,23.7,26.1,"06:21:52",1
"21/08/04","06:40",0.0,25.3,94.8,1007.4,333.5,0.3,1.1,337.3,0.02,24.4,25.9,"06:37:36",1
"21/08/04","06:50",0.0,26.2,94.7,1007.4,349.6,0.3,1.1,338.1,0.04,25.3,26.1,"06:44:08",1
"21/08/04","07:00",0.0,27.3,94.5,1006.9,27.2,0.2,0.8,43.9,0.07,26.4,26.0,"06:50:08",1
"21/08/04","07:10",0.0,28.2,94.2,1006.9,28.6,0.1,0.4,351.2,0.09,27.2,26.0,"07:00:16",1
"21/08/04","07:20",0.0,28.9,93.9,1007.1,79.7,0.1,0.5,10.6,0.11,27.9,25.9,"07:12:08",1
"21/08/04","07:30",0.0,28.6,93.3,1006.7,138.6,0.3,0.9,93.9,0.14,27.5,26.2,"07:29:36",1
"21/08/04","07:40",0.0,28.1,91.2,1007.1,77.6,0.3,0.8,22.2,0.17,26.6,25.9,"07:35:12",1
"21/08/04","07:50",0.0,28.3,91.0,1007.6,162.2,0.5,1.3,131.8,0.19,26.7,25.9,"07:46:56",1
"21/08/04","08:00",0.0,28.2,89.5,1008.1,86.0,0.6,1.2,117.1,0.22,26.3,26.2,"07:53:04",1
"21/08/04","08:10",0.0,29.3,86.7,1007.8,25.9,0.6,1.9,34.6,0.25,26.9,25.9,"08:02:24",1
"21/08/04","08:20",0.0,29.6,82.0,1007.8,136.9,0.7,1.9,74.9,0.15,26.2,26.1,"08:17:52",1
"21/08/04","08:30",0.0,29.2,78.8,1007.6,128.9,1.0,1.8,134.4,0.11,25.2,26.0,"08:23:04",1
"21/08/04","08:40",0.0,29.1,77.2,1007.4,46.0,0.6,1.9,5.3,0.10,24.7,26.3,"08:38:24",1
"21/08/04","08:50",0.0,29.6,75.6,1006.9,73.1,0.7,1.9,133.5,0.16,24.9,26.1,"08:49:12",1
"21/08/04","09:00",0.0,30.3,75.0,1006.7,148.6,0.5,1.6,107.8,0.28,25.4,26.2,"08:57:28",1
"21/08/04","09:10",0.0,31.4,71.6,1007.6,26.9,0.6,1.9,24.1,0.41,25.7,26.3,"09:02:16",1
"21/08/04","09:20",0.0,32.3,67.7,1008.1,93.3,0.8,1.9,25.9,0.43,25.6,26.1,"09:16:08",1
"21/08/04","09:30",0.0,31.8,66.5,1007.8,79.2,0.6,1.9,78.1,0.20,24.8,26.4,"09:27:28",1
"21/08/04","09:40",0.0,32.2,67.4,1007.8,161.9,0.8,2.5,139.3,0.41,25.4,26.4,"09:34:56",1
"21/08/04","09:50",0.0,32.4,65.9,1008.6,93.4,0.8,2.4,105.9,0.38,25.2,26.6,"09:47:36",1
"21/08/04","10:00",0.0,32.4,67.3,1008.1,158.5,1.0,1.9,211.2,0.43,25.6,26.7,"09:53:28",1
"21/08/04","10:10",0.0,32.3,66.0,1008.1,137.7,1.5,3.7,202.6,0.52,25.2,26.7,"10:04:40",1
"21/08/04","10:20",0.0,32.9,65.3,1008.3,144.9,1.1,2.8,186.2,0.55,25.6,26.6,"10:16:32",1
"21/08/04","10:30",0.0,33.0,64.8,1008.3,135.5,0.8,2.4,216.7,0.33,25.5,27.0,"10:22:24",1
"21/08/04","10:40",0.0,33.2,62.6,1008.3,116.5,0.8,2.6,137.8,0.48,25.1,26.9,"10:31:44",1
"21/08/04","10:50",0.2,33.2,63.7,1008.3,327.4,0.6,1.4,359.6,0.43,25.4,27.2,"10:44:00",1
"21/08/04","11:00",0.0,33.6,62.0,1008.6,127.3,1.0,2.7,139.3,0.48,25.3,27.2,"10:56:40",1
"21/08/04","11:10",0.0,32.9,62.6,1007.8,111.1,0.8,2.7,95.9,0.13,24.9,27.3,"11:09:04",1
"21/08/04","11:20",0.0,32.1,64.1,1007.1,79.6,0.8,1.8,82.8,0.10,24.5,27.2,"11:10:40",1
"21/08/04","11:30",0.0,32.2,65.7,1007.1,323.5,0.5,1.3,342.1,0.15,25.0,27.5,"11:26:24",1
"21/08/04","11:40",0.0,33.2,65.1,1006.9,338.0,0.8,2.0,351.7,0.63,25.8,27.4,"11:37:52",1
"21/08/04","11:50",0.0,34.8,61.7,1007.1,64.7,0.6,1.9,329.8,0.66,26.4,27.6,"11:46:48",1
"21/08/04","12:00",0.0,35.1,57.7,1007.4,26.7,1.0,2.2,349.7,0.65,25.5,27.8,"11:59:28",1
"21/08/04","12:10",0.0,34.7,58.7,1007.4,0.4,1.0,2.0,350.9,0.63,25.5,27.8,"12:05:20",1
"21/08/04","12:20",0.0,35.0,55.9,1007.4,28.2,0.8,1.9,46.4,0.60,24.9,28.0,"12:12:00",1
"21/08/04","12:30",0.0,35.3,57.3,1007.1,151.3,1.1,1.9,179.2,0.63,25.6,28.1,"12:25:28",1
"21/08/04","12:40",0.0,35.7,55.7,1007.1,97.2,1.2,3.1,143.0,0.63,25.5,28.3,"12:38:00",1
"21/08/04","12:50",0.0,35.9,56.8,1007.1,166.3,1.0,1.8,127.7,0.63,26.0,28.3,"12:49:44",1
"21/08/04","13:00",0.0,36.3,54.6,1007.4,149.3,1.0,2.4,137.7,0.64,25.7,28.5,"12:50:08",1
"21/08/04","13:10",0.0,36.4,52.0,1007.4,146.6,1.1,2.2,166.4,0.65,25.0,28.5,"13:02:00",1
"21/08/04","13:20",0.0,36.9,52.2,1007.4,146.4,0.8,2.0,124.9,0.65,25.5,28.7,"13:17:44",1
"21/08/04","13:30",0.0,35.3,54.1,1006.7,124.8,0.6,1.7,129.9,0.12,24.6,28.8,"13:21:12",1
"21/08/04","13:40",0.0,35.5,60.3,1006.2,123.5,0.7,1.8,120.3,0.39,26.7,28.9,"13:38:16",1
"21/08/04","13:50",0.0,36.0,53.1,1006.9,143.6,1.0,2.7,145.7,0.59,25.0,29.1,"13:46:56",1
"21/08/04","14:00",0.0,36.3,52.9,1006.2,135.7,1.1,2.4,127.7,0.56,25.2,29.2,"13:54:16",1
"21/08/04","14:10",0.0,37.1,52.0,1006.2,58.3,0.6,1.6,345.9,0.56,25.6,29.2,"14:06:16",1
"21/08/04","14:20",0.0,37.5,50.3,1006.4,171.8,1.0,4.2,290.6,0.57,25.4,29.1,"14:10:02",1
"21/08/04","14:30",0.0,37.3,50.8,1006.0,342.0,1.1,4.4,14.0,0.56,25.4,29.3,"14:20:08",1
"21/08/04","14:40",0.0,37.2,50.5,1006.0,139.2,1.0,2.4,123.4,0.54,25.2,29.4,"14:38:56",1
"21/08/04","14:50",0.0,36.9,50.4,1006.2,124.0,1.1,2.5,148.7,0.52,24.9,29.4,"14:46:00",1
"21/08/04","15:00",0.0,37.1,49.3,1005.7,186.0,1.0,2.4,166.5,0.50,24.7,29.6,"14:53:44",1
"21/08/04","15:10",0.0,37.9,49.3,1006.2,30.5,0.6,2.0,45.0,0.48,25.5,29.6,"15:07:20",1
"21/08/04","15:20",0.0,35.5,52.4,1005.5,179.2,1.2,2.4,223.5,0.09,24.3,29.4,"15:13:04",1
"21/08/04","15:30",0.0,34.9,54.9,1004.8,192.5,1.2,3.1,197.7,0.19,24.5,29.7,"15:21:44",1
"21/08/04","15:40",0.0,35.4,54.5,1004.3,234.4,1.5,3.1,239.5,0.33,24.9,29.7,"15:30:16",1
"21/08/04","15:50",0.0,36.1,53.5,1004.3,220.6,1.3,2.9,214.2,0.39,25.2,29.8,"15:43:12",1
"21/08/04","16:00",0.0,36.9,51.2,1005.0,297.4,0.8,1.9,350.0,0.41,25.2,29.7,"15:51:04",1
"21/08/04","16:10",0.0,36.7,50.1,1004.5,237.4,1.2,2.6,226.8,0.37,24.6,29.7,"16:01:12",1
"21/08/04","16:20",0.0,36.7,50.1,1004.5,230.1,1.2,2.5,222.3,0.34,24.6,29.7,"16:18:56",1
"21/08/04","16:30",0.0,36.8,49.3,1004.5,222.5,0.8,2.1,231.9,0.31,24.5,29.7,"16:22:00",1
"21/08/04","16:40",0.0,37.0,47.7,1004.8,239.6,0.7,1.9,236.1,0.28,24.1,29.8,"16:36:48",1
"21/08/04","16:50",0.0,37.2,49.3,1004.5,343.7,0.7,2.1,75.7,0.25,24.8,29.8,"16:48:24",1
"21/08/04","17:00",0.0,37.2,48.3,1004.5,21.6,0.7,1.7,52.4,0.21,24.5,29.7,"16:53:12",1
"21/08/04","17:10",0.0,37.0,50.1,1004.5,84.5,0.6,1.7,359.8,0.18,24.9,29.9,"17:07:36",1
"21/08/04","17:20",0.0,36.7,50.9,1004.3,100.2,0.8,2.1,48.3,0.16,24.9,30.0,"17:16:40",1
"21/08/04","17:30",0.0,36.4,52.2,1004.1,97.7,0.7,1.7,41.9,0.14,25.1,30.0,"17:20:48",1
"21/08/04","17:40",0.0,36.4,52.8,1004.3,23.2,0.6,1.7,97.8,0.11,25.3,30.0,"17:35:04",1
"21/08/04","17:50",0.0,36.0,53.7,1003.8,124.7,0.8,2.7,58.0,0.06,25.2,30.2,"17:46:32",1
"21/08/04","18:00",0.0,35.4,55.1,1003.8,115.1,0.6,1.9,127.3,0.02,25.0,30.0,"17:52:00",1
"21/08/04","18:10",0.0,34.9,55.6,1003.6,44.6,0.3,1.0,50.2,0.02,24.7,30.1,"18:09:20",1
"21/08/04","18:20",0.0,34.7,56.9,1003.6,55.4,0.5,1.4,53.5,0.01,24.9,30.0,"18:12:16",1
"21/08/04","18:30",0.0,34.0,60.0,1003.4,357.1,0.7,1.7,350.7,0.00,25.2,29.8,"18:29:36",1
"21/08/04","18:40",0.0,32.8,62.7,1002.9,346.3,1.2,2.4,345.8,0.00,24.8,29.8,"18:37:20",1
"21/08/04","18:50",0.0,32.1,65.0,1002.6,342.9,1.2,2.6,351.3,0.00,24.7,30.0,"18:48:48",1
"21/08/04","19:00",0.0,31.6,66.2,1002.4,327.0,0.5,1.3,350.8,0.00,24.6,29.9,"18:53:20",1
"21/08/04","19:10",0.0,31.3,68.2,1001.9,273.9,0.5,1.0,343.8,0.00,24.8,29.7,"19:03:12",1
"21/08/04","19:20",0.0,30.8,70.2,1001.9,307.2,0.6,1.4,337.2,0.00,24.8,29.7,"19:19:28",1
"21/08/04","19:30",0.0,30.5,72.1,1001.9,345.6,1.2,2.6,356.2,0.00,24.9,29.8,"19:24:24",1
"21/08/04","19:40",0.0,30.2,73.6,1001.7,348.5,1.3,3.2,347.6,0.00,25.0,29.7,"19:35:44",1
"21/08/04","19:50",0.0,30.0,75.0,1001.7,0.9,1.1,2.4,342.9,0.00,25.1,29.7,"19:41:28",1
"21/08/04","20:00",0.0,29.8,76.2,1001.5,350.7,1.0,1.8,349.4,0.00,25.2,29.7,"19:59:04",1
"21/08/04","20:10",0.0,29.5,76.9,1001.7,357.4,1.0,1.9,12.7,0.00,25.1,29.8,"20:09:12",1
"21/08/04","20:20",0.0,29.6,76.7,1001.5,356.5,0.6,1.2,3.4,0.00,25.1,29.7,"20:10:40",1
"21/08/04","20:30",0.0,29.4,77.3,1001.7,319.1,0.8,1.3,327.3,0.00,25.0,29.6,"20:23:20",1
"21/08/04","20:40",0.0,29.1,78.2,1002.6,331.9,0.7,1.4,309.0,0.00,25.0,29.5,"20:30:32",1
"21/08/04","20:50",0.0,28.9,79.0,1002.6,300.4,0.6,1.1,313.2,0.00,24.9,29.6,"20:48:32",1
"21/08/04","21:00",0.0,28.8,79.6,1002.6,340.2,0.8,1.4,314.9,0.00,25.0,29.3,"20:56:32",1
"21/08/04","21:10",0.0,28.8,79.9,1003.1,340.7,1.0,1.8,348.6,0.00,25.0,29.2,"21:01:44",1
"21/08/04","21:20",0.0,28.6,80.6,1003.4,335.7,1.1,1.9,344.0,0.00,25.0,29.3,"21:10:48",1
"21/08/04","21:30",0.0,28.2,81.6,1003.4,339.1,0.8,1.4,345.3,0.00,24.8,29.0,"21:23:20",1
"21/08/04","21:40",0.0,28.1,82.1,1003.4,344.9,0.7,1.2,353.2,0.00,24.8,29.2,"21:37:12",1
"21/08/04","21:50",0.0,28.0,82.1,1003.6,347.9,0.7,1.3,341.1,0.00,24.7,29.1,"21:47:52",1
"21/08/04","22:00",0.0,28.0,82.3,1003.6,345.1,1.0,1.6,346.7,0.00,24.7,29.2,"21:50:40",1
"21/08/04","22:10",0.0,27.9,82.7,1003.8,353.3,0.8,1.7,345.3,0.00,24.7,29.0,"22:01:28",1
"21/08/04","22:20",0.0,27.8,82.9,1003.8,341.8,0.8,1.7,348.9,0.00,24.7,28.8,"22:10:48",1
"21/08/04","22:30",0.0,27.6,83.2,1003.8,341.3,0.8,1.6,342.1,0.00,24.5,29.1,"22:26:00",1
"21/08/04","22:40",0.0,27.6,83.6,1003.8,348.9,0.5,1.1,349.8,0.00,24.6,29.1,"22:38:32",1
"21/08/04","22:50",0.0,27.5,83.7,1003.6,322.4,0.3,0.9,337.7,0.00,24.5,29.0,"22:40:48",1
"21/08/04","23:00",0.0,27.3,83.9,1003.8,321.5,0.6,1.3,342.7,0.00,24.4,28.7,"22:53:44",1
"21/08/04","23:10",0.0,27.2,84.3,1003.6,343.8,0.2,1.2,14.5,0.00,24.4,28.8,"23:08:56",1
"21/08/04","23:20",0.0,27.1,84.5,1004.1,345.8,0.5,1.2,5.5,0.00,24.3,28.7,"23:12:40",1
"21/08/04","23:30",0.0,27.0,84.9,1004.1,339.4,0.7,2.0,333.7,0.00,24.3,28.5,"23:29:12",1
"21/08/04","23:40",0.0,26.9,85.4,1004.1,343.7,1.0,2.0,346.6,0.00,24.3,28.5,"23:37:04",1
"21/08/04","23:50",0.0,26.7,85.9,1003.8,335.8,0.8,2.0,349.7,0.00,24.2,28.7,"23:40:08",1
"21/08/04","24:00",0.0,26.5,86.2,1003.6,322.3,0.7,1.2,328.6,0.00,24.0,28.6,"23:50:48",1
